Flag for Spain Weather past 2 weeks in Santa Cruz de Tenerife, Canary Islands, Spain

Now
72 °F

Passing clouds.


Feels Like: 67 °F
Forecast: 72 / 78 °F
Wind: 21 mph from Northwest

Location: Tenerife / Los Rodeos

Current Time: Aug 27, 2014 at 4:24:48 PM

Latest Report: Aug 27, 2014 at 4:00 PM


Visibility: N/A

Pressure: 30.07 "Hg

Humidity: 94%

Dew point: 70 °F

Location of Santa Cruz de TenerifeLocation

Historic Weather in Santa Cruz de Tenerife — Graph

°F

Santa Cruz de Tenerife temperature yesterday

Maximum temperature yesterday: 79 °F (at 12:30 PM)
Minimum temperature yesterday: 61 °F (at 6:00 AM)
Average temperature yesterday: 68 °F

Past Weeks' High & Low Weather Summary

 TemperatureHumidityPressure
High88 °F (Aug 21, 1:30 PM)100% (Aug 12, 10:30 PM)30.18 "Hg (Aug 12, 10:30 PM)
Low61 °F (Aug 15, 6:00 AM)26% (Aug 22, 10:00 AM)30.01 "Hg (Aug 17, 5:30 PM)
Average69 °F83%30.11 "Hg
* Reported Aug 12 3:00 PM — Aug 27 3:00 PM, Santa Cruz de Tenerife, Weather by CustomWeather, © 2014

Note: Actual official high and low records may vary slightly from our data, if they occured in-between our weather recording intervals... More about our weather records

Advertising

Santa Cruz de Tenerife weather history for previous 24 hours

 ConditionsComfort  
Time TempWeatherWind HumidityBarometerVisibility
3:00 PM
Aug 27
75 °FPassing clouds.10 mph78%30.09 "HgN/A
2:30 PM77 °FPassing clouds.12 mph69%30.09 "HgN/A
2:00 PM79 °FPassing clouds.6 mph70%30.09 "HgN/A
1:30 PM77 °FPassing clouds.9 mph79%30.09 "HgN/A
1:00 PM79 °FPassing clouds.9 mph84%30.12 "HgN/A
12:30 PM75 °FPassing clouds.9 mph74%30.09 "HgN/A
12:00 PM75 °FPassing clouds.9 mph78%30.09 "HgN/A
11:30 AM73 °FPassing clouds.8 mph83%30.12 "HgN/A
11:00 AM72 °FPassing clouds.10 mph94%30.09 "HgN/A
10:30 AM72 °FPassing clouds.12 mph94%30.09 "HgN/A
10:00 AM68 °FPassing clouds.14 mph100%30.09 "HgN/A
9:30 AM68 °FPassing clouds.12 mph100%30.09 "Hg6 mi
9:00 AM66 °FPassing clouds.10 mph100%30.07 "Hg6 mi
8:30 AM63 °FPassing clouds.12 mph100%30.07 "Hg6 mi
8:00 AM63 °FPassing clouds.12 mph100%30.07 "Hg6 mi
7:30 AM63 °FPassing clouds.13 mph100%30.07 "Hg6 mi
7:00 AM63 °FPassing clouds.12 mph100%30.07 "Hg6 mi
6:30 AM63 °FPassing clouds.13 mph100%30.07 "Hg5 mi
6:00 AM63 °FPassing clouds.13 mph100%30.07 "Hg5 mi
11:00 PM
Aug 26
64 °FFog.13 mph100%30.12 "HgN/A
10:30 PM64 °FFog.15 mph100%30.12 "HgN/A
10:00 PM64 °FFog.18 mph100%30.09 "HgN/A
9:30 PM64 °FFog.17 mph100%30.09 "HgN/A
9:00 PM64 °FScattered clouds.18 mph100%30.09 "HgN/A
8:30 PM64 °FScattered clouds.20 mph100%30.07 "HgN/A
8:00 PM66 °FScattered clouds.20 mph100%30.07 "HgN/A
7:30 PM66 °FScattered clouds.21 mph100%30.07 "HgN/A
7:00 PM68 °FScattered clouds.20 mph100%30.07 "HgN/A
6:30 PM70 °FScattered clouds.17 mph100%30.07 "HgN/A
6:00 PM70 °FScattered clouds.18 mph100%30.09 "HgN/A
5:30 PM70 °FScattered clouds.17 mph100%30.09 "HgN/A
5:00 PM72 °FScattered clouds.17 mph94%30.09 "HgN/A
4:30 PM72 °FFog.20 mph88%30.09 "HgN/A
4:00 PM72 °FPassing clouds.18 mph88%30.09 "HgN/A
Weather by CustomWeather, © 2014

See weather overviewHow to use our weather pages